AKDT,Max TemperatureF,Mean TemperatureF,Min TemperatureF,Max Dew PointF,MeanDew PointF,Min DewpointF,Max Humidity, Mean Humidity, Min Humidity, Max Sea Level PressureIn, Mean Sea Level PressureIn, Min Sea Level PressureIn, Max VisibilityMiles, Mean VisibilityMiles, Min VisibilityMiles, Max Wind SpeedMPH, Mean Wind SpeedMPH, Max Gust SpeedMPH,PrecipitationIn, CloudCover, Events, WindDirDegrees
2011-10-1,46,42,39,38,35,31,93,77,54,29.57,29.53,29.47,10,8,3,14,7,24,1.14,8,Rain,356
2011-10-2,44,40,37,41,38,34,97,91,81,29.57,29.50,29.44,10,5,2,12,3,29,3.31,8,Rain,355
2011-10-3,50,42,35,40,36,32,100,86,54,29.55,29.48,29.42,10,10,7,12,3,17,0.15,4,Rain,8
2011-10-4,53,44,35,34,31,30,85,65,41,29.56,29.49,29.46,10,10,10,15,11,26,0.00,1,,359
2011-10-5,46,38,30,40,35,27,93,81,70,29.57,29.49,29.35,10,8,2,16,7,31,0.42,6,Rain,281
2011-10-6,43,40,37,41,39,37,100,94,85,29.52,29.40,29.34,10,7,2,5,1,,0.62,8,Rain,325
2011-10-7,43,38,34,41,38,34,100,97,87,29.75,29.68,29.53,10,9,4,5,0,,0.04,8,Rain,317
2011-10-8,45,38,33,39,36,33,100,96,79,29.77,29.72,29.57,10,8,1,10,1,,0.00,5,Rain,337
2011-10-9,48,39,30,37,32,28,92,80,50,29.59,29.54,29.51,10,10,10,13,8,,0.00,0,,6
2011-10-10,51,42,33,31,28,25,82,63,38,29.59,29.51,29.46,10,10,10,13,8,26,0.00,0,,6
2011-10-11,48,40,35,26,24,21,70,54,37,29.62,29.51,29.45,10,10,10,17,13,29,0.00,0,,7
2011-10-12,45,41,34,22,19,16,56,42,32,29.97,29.81,29.63,10,10,10,21,13,32,0.00,0,,355
2011-10-13,46,40,33,33,26,20,67,57,40,30.03,29.99,29.87,10,10,10,13,8,18,0.00,7,,271
2011-10-14,45,42,39,41,38,33,93,88,63,29.85,29.55,29.34,10,7,2,18,4,25,1.68,8,Rain,265
2011-10-15,46,42,39,41,38,37,97,89,76,29.59,29.48,29.40,10,10,6,8,2,,0.21,8,Rain,17
2011-10-16,50,44,39,38,37,35,89,81,64,29.79,29.66,29.59,10,10,8,13,6,,0.06,8,Rain,20
2011-10-17,45,40,37,37,35,30,93,81,68,29.88,29.81,29.68,10,10,10,13,4,18,0.07,7,Rain,5
2011-10-18,44,38,32,29,25,22,70,56,45,29.68,29.62,29.55,10,10,10,23,16,37,0.00,0,,341
2011-10-19,43,36,30,31,24,20,89,66,43,29.73,29.71,29.68,10,10,10,15,9,22,0.00,6,Rain,17
2011-10-20,48,39,30,37,30,27,89,74,50,29.73,29.61,29.46,10,10,10,9,3,,0.03,7,Rain,9
2011-10-21,46,42,39,39,36,33,93,78,61,29.45,29.33,29.28,10,10,8,13,4,20,0.08,8,Rain,338
2011-10-22,46,42,37,39,37,33,93,86,71,29.55,29.44,29.36,10,10,8,9,2,,0.21,7,Rain,8
2011-10-23,48,41,36,35,33,31,93,78,54,29.72,29.66,29.57,10,10,4,16,8,23,0.07,2,Rain,14
2011-10-24,46,41,36,43,38,33,93,86,73,29.70,29.60,29.47,10,6,2,26,7,45,1.53,8,Rain,167
2011-10-25,46,42,37,43,37,34,100,88,73,29.46,29.02,28.77,10,5,2,23,12,43,2.63,8,Rain,314
2011-10-26,45,37,30,36,29,23,87,70,45,29.56,29.35,29.00,10,10,10,13,9,25,0.02,3,Rain,9
2011-10-27,45,38,30,32,28,24,89,72,56,29.58,29.51,29.39,10,10,10,10,5,16,0.00,7,,355
2011-10-28,44,38,32,31,29,27,92,77,55,29.38,29.25,29.15,10,10,10,10,8,18,0.00,3,,356
2011-10-29,44,38,33,33,31,29,92,74,60,29.18,29.04,28.95,10,10,10,17,9,26,0.00,8,Rain,1
2011-10-30,39,36,30,32,26,16,85,68,48,29.69,29.42,29.21,10,10,4,18,12,30,0.01,7,Rain-Snow,1
2011-10-31,34,30,26,31,26,17,93,84,57,29.71,29.63,29.48,10,5,0,15,5,25,0.21,7,Fog-Snow,350